Hillsboro, TX

10:21 PM CDT on July 25, 2017 (GMT -0500)
Hillsboro

Weather History for KINJ - September, 2013

Change the Weather History Date:

Thursday, September 26, 2013

  Actual Average (KACT) Record (KACT)
Temperature  
Mean Temperature 82 °F -  
Max Temperature 93 °F 85 °F 108 °F (2005)
Min Temperature 70 °F 60 °F 44 °F (1989)
Cooling Degree Days 16    
Growing Degree Days 32 (Base 50)    
Moisture  
Dew Point 53 °F    
Average Humidity 38    
Maximum Humidity 63    
Minimum Humidity 22    
Precipitation  
Precipitation 0.00 in - - ()
Sea Level Pressure  
Sea Level Pressure 29.86 in    
Wind  
Wind Speed 10 mph (SSE)    
Max Wind Speed 18 mph    
Max Gust Speed 26 mph    
Visibility 10 miles    
Events      
Averages and records for this station are not official NWS values.
T = Trace of Precipitation, MM = Missing Value Source: NWS Daily Summary

Daily Weather History Graph

Daily Weather History Graph

Search for Another Location

Airport or City:

Trip Planner

Search our weather history database for the weather conditions in past years. The results will help you decide how hot, cold, wet, or windy it might be!

Date:

Astronomy

Sep. 26, 2013 Rise Set
Actual Time 7:19 AM CDT 7:19 PM CDT
Civil Twilight 6:54 AM CDT 7:43 PM CDT
Nautical Twilight 6:26 AM CDT 8:12 PM CDT
Astronomical Twilight 5:57 AM CDT 8:40 PM CDT
Moon No Moon Rise 1:54 PM CDT
Length of Visible Light 12h 48m
Length of Day
12h 00m
Waning Gibbous, 54% of the Moon is Illuminated
Sep 26
Waning Gibbous
Sep 26
Last Quarter
Oct 4
New
Oct 11
First Quarter
Oct 18
Full

Hourly Weather History & Observations

Time (CDT) Temp. Heat Index Dew Point Humidity Pressure Visibility Wind Dir Wind Speed Gust Speed Precip Events Conditions
12:15 AM 78.3 °F - 48.7 °F 35% 29.82 in 10.0 mi ESE 10.4 mph - N/A   Clear
12:35 AM 77.9 °F - 48.4 °F 35% 29.82 in 10.0 mi ESE 11.5 mph - N/A   Clear
12:55 AM 77.2 °F - 48.6 °F 36% 29.82 in 10.0 mi East 10.4 mph - N/A   Clear
1:15 AM 76.1 °F - 49.6 °F 39% 29.82 in 10.0 mi ESE 8.1 mph - N/A   Clear
1:35 AM 74.5 °F - 50.2 °F 42% 29.82 in 10.0 mi SE 5.8 mph - N/A   Clear
1:55 AM 73.4 °F - 50.7 °F 45% 29.82 in 10.0 mi SSE 5.8 mph - N/A   Clear
2:15 AM 72.9 °F - 50.5 °F 45% 29.82 in 10.0 mi SE 5.8 mph - N/A   Clear
2:35 AM 72.3 °F - 50.4 °F 46% 29.82 in 10.0 mi SE 4.6 mph - N/A   Clear
2:55 AM 75.0 °F - 48.2 °F 39% 29.82 in 10.0 mi SE 9.2 mph - N/A   Clear
3:15 AM 73.9 °F - 48.4 °F 40% 29.82 in 10.0 mi SE 10.4 mph - N/A   Clear
3:55 AM 74.3 °F - 49.6 °F 42% 29.82 in 10.0 mi SE 8.1 mph - N/A   Clear
4:15 AM 73.6 °F - 52.2 °F 47% 29.82 in 10.0 mi SE 6.9 mph - N/A   Clear
4:35 AM 73.6 °F - 54.0 °F 50% 29.82 in 10.0 mi SE 8.1 mph - N/A   Clear
4:55 AM 73.4 °F - 54.9 °F 52% 29.82 in 10.0 mi SE 8.1 mph - N/A   Clear
5:15 AM 72.7 °F - 55.4 °F 55% 29.82 in 10.0 mi SE 6.9 mph - N/A   Clear
5:35 AM 71.6 °F - 55.6 °F 57% 29.82 in 10.0 mi SSE 5.8 mph - N/A   Clear
5:55 AM 70.9 °F - 56.1 °F 59% 29.83 in 10.0 mi SSE 6.9 mph - N/A   Clear
6:15 AM 71.6 °F - 56.3 °F 58% 29.83 in 10.0 mi SSE 5.8 mph - N/A   Clear
6:35 AM 71.6 °F - 56.5 °F 59% 29.84 in 10.0 mi SSE 6.9 mph - N/A   Clear
6:55 AM 71.6 °F - 56.7 °F 59% 29.85 in 10.0 mi SSE 6.9 mph - N/A   Clear
7:15 AM 70.7 °F - 56.7 °F 61% 29.85 in 10.0 mi SSE 6.9 mph - N/A   Clear
7:35 AM 70.2 °F - 57.2 °F 63% 29.86 in 10.0 mi SSE 5.8 mph - N/A   Clear
8:15 AM 72.7 °F - 57.6 °F 59% 29.87 in 10.0 mi SSE 5.8 mph - N/A   Clear
8:35 AM 74.7 °F - 57.7 °F 55% 29.88 in 10.0 mi SSE 4.6 mph - N/A   Clear
8:55 AM 77.0 °F - 56.3 °F 49% 29.89 in 10.0 mi South 6.9 mph - N/A   Clear
9:15 AM 78.4 °F - 55.0 °F 44% 29.89 in 10.0 mi South 6.9 mph - N/A   Clear
9:35 AM 80.6 °F 80.3 °F 53.4 °F 39% 29.90 in 10.0 mi South 9.2 mph - N/A   Clear
9:55 AM 81.5 °F 80.9 °F 54.1 °F 39% 29.90 in 10.0 mi SSW 10.4 mph - N/A   Clear
10:15 AM 82.8 °F 81.7 °F 53.8 °F 37% 29.90 in 10.0 mi SSW 10.4 mph - N/A   Clear
10:35 AM 83.7 °F 82.4 °F 54.0 °F 36% 29.91 in 10.0 mi SSW 9.2 mph - N/A   Clear
10:55 AM 85.1 °F 83.5 °F 54.0 °F 34% 29.91 in 10.0 mi South 15.0 mph - N/A   Clear
11:15 AM 86.5 °F 84.9 °F 55.0 °F 34% 29.91 in 10.0 mi South 12.7 mph - N/A   Clear
11:35 AM 88.0 °F 86.3 °F 55.4 °F 33% 29.91 in 10.0 mi South 12.7 mph 17.3 mph N/A   Clear
11:55 AM 88.2 °F 86.3 °F 55.0 °F 32% 29.91 in 10.0 mi South 11.5 mph 17.3 mph N/A   Clear
12:15 PM 89.8 °F 87.7 °F 54.7 °F 30% 29.90 in 10.0 mi SSE 13.8 mph - N/A   Clear
12:35 PM 90.7 °F 88.5 °F 54.5 °F 29% 29.90 in 10.0 mi SSE 13.8 mph 19.6 mph N/A   Clear
12:55 PM 91.0 °F 88.5 °F 53.1 °F 27% 29.90 in 10.0 mi SSE 17.3 mph - N/A   Clear
1:15 PM 91.8 °F 89.3 °F 53.1 °F 27% 29.89 in 10.0 mi SSE 10.4 mph 24.2 mph N/A   Clear
1:35 PM 92.1 °F - 52.5 °F 26% 29.89 in 10.0 mi SSE 13.8 mph 26.5 mph N/A   Clear
1:55 PM 92.5 °F - 52.2 °F 25% 29.88 in 10.0 mi SSE 12.7 mph 23.0 mph N/A   Clear
2:15 PM 92.5 °F - 52.3 °F 25% 29.87 in 10.0 mi SE 17.3 mph 24.2 mph N/A   Clear
2:35 PM 92.1 °F - 50.9 °F 24% 29.86 in 10.0 mi SSE 17.3 mph - N/A   Clear
2:55 PM 92.7 °F - 52.3 °F 25% 29.86 in 10.0 mi South 16.1 mph - N/A   Clear
3:35 PM 93.2 °F - 50.4 °F 23% 29.85 in 10.0 mi SE 18.4 mph - N/A   Clear
3:55 PM 93.0 °F - 51.4 °F 24% 29.85 in 10.0 mi South 17.3 mph 20.7 mph N/A   Clear
4:15 PM 93.2 °F - 51.6 °F 24% 29.84 in 10.0 mi SSE 15.0 mph 20.7 mph N/A   Clear
4:35 PM 92.7 °F - 49.6 °F 23% 29.84 in 10.0 mi South 12.7 mph 19.6 mph N/A   Clear
4:55 PM 92.8 °F - 50.0 °F 23% 29.84 in 10.0 mi SE 11.5 mph 21.9 mph N/A   Clear
5:15 PM 92.5 °F - 48.9 °F 22% 29.84 in 10.0 mi SSE 13.8 mph - N/A   Clear
5:35 PM 91.6 °F - 50.2 °F 24% 29.84 in 10.0 mi SSE 12.7 mph - N/A   Clear
5:55 PM 91.4 °F - 49.6 °F 24% 29.84 in 10.0 mi SE 15.0 mph - N/A   Clear
6:15 PM 90.5 °F - 50.4 °F 25% 29.84 in 10.0 mi SSE 12.7 mph - N/A   Clear
6:35 PM 89.6 °F - 51.3 °F 27% 29.84 in 10.0 mi SE 9.2 mph - N/A   Clear
6:55 PM 88.2 °F - 50.9 °F 28% 29.85 in 10.0 mi SE 8.1 mph - N/A   Clear
7:15 PM 85.8 °F - 51.6 °F 31% 29.85 in 10.0 mi SE 8.1 mph - N/A   Clear
7:35 PM 84.0 °F - 51.8 °F 33% 29.85 in 10.0 mi SE 5.8 mph - N/A   Clear
7:55 PM 82.0 °F - 51.8 °F 35% 29.85 in 10.0 mi SE 6.9 mph - N/A   Clear
8:15 PM 82.2 °F - 51.8 °F 35% 29.85 in 10.0 mi SE 8.1 mph - N/A   Clear
8:35 PM 81.7 °F - 51.8 °F 35% 29.85 in 10.0 mi ESE 9.2 mph - N/A   Clear
8:55 PM 81.5 °F - 52.0 °F 36% 29.86 in 10.0 mi ESE 10.4 mph - N/A   Clear
9:15 PM 81.1 °F - 52.7 °F 37% 29.86 in 10.0 mi ESE 10.4 mph - N/A   Clear
9:35 PM 80.6 °F 80.2 °F 53.1 °F 38% 29.87 in 10.0 mi ESE 10.4 mph - N/A   Clear
9:55 PM 80.2 °F 80.1 °F 53.6 °F 40% 29.87 in 10.0 mi ESE 9.2 mph - N/A   Clear
10:15 PM 79.7 °F - 54.0 °F 41% 29.88 in 10.0 mi ESE 10.4 mph - N/A   Clear
10:35 PM 78.8 °F - 54.7 °F 43% 29.88 in 10.0 mi ESE 9.2 mph - N/A   Clear
10:55 PM 79.2 °F - 55.2 °F 44% 29.88 in 10.0 mi ESE 9.2 mph - N/A   Clear
11:35 PM 77.2 °F - 55.8 °F 47% 29.88 in 10.0 mi ESE 12.7 mph - N/A   Clear
11:55 PM 77.0 °F - 56.5 °F 49% 29.89 in 10.0 mi SE 15.0 mph - N/A   Clear